<?xml version="1.0"?>
<rss version="2.0">
   <channel>
   <title>[RADIOCOMM LIST]</title>
   <link>https://aus-city.com/cgi-bin/dada/mail.cgi/list/RADIOCOMM_LIST/</link>
   <description>Radio Comm Report list.  Deals with all modes of communications in the 150 KHz to 1300 MHz, including solar and atmospheric conditions.</description>
   <language>en-us</language>
   <lastBuildDate>Fri, 04 Sep 2026 04:05:00 GMT</lastBuildDate>
   <generator>Pro Dada v11.22.0 stable 2023-09-18</generator>
   
    
	 
		<item>
		 <title> [Keps] Changes to AMSAT TLE Distribution for 04 September 2026</title>
		 <link>https://aus-city.com/cgi-bin/dada/mail.cgi/archive/RADIOCOMM_LIST/20260903174550/</link>
		 <description>
                
                
			  	&#60;p&#62;The following satellites have been removed from this week's AMSAT TLE distribution:&#60;/p&#62;

&#60;p&#62;HYPERVIEW-1G (RS66S) NORAD Cat ID 61772  Decayed from orbit on or about 18 August 2026
Sparrow NORAD Cat ID 43881  Decayed from orbit on or about 18 August 2026&#60;/p&#62;

&#60;p&#62;Joe Fitzgerald KM1P
AMSAT Orbital Elements Manager&#60;/p&#62;

&#60;hr&#62;

&#60;p&#62;Keps mailing list -- &#38;#107;&#38;#101;&#38;#x70;&#38;#115;&#38;#x40;&#38;#97;&#38;#109;&#38;#x73;&#38;#97;&#38;#116;&#38;#46;&#38;#x6F;&#38;#114;&#38;#103;
View archives of this mailing list at https://mailman.amsat.org/hyperkitty/list/&#38;#107;&#38;#101;&#38;#x70;&#38;#115;&#38;#x40;&#38;#97;&#38;#109;&#38;#x73;&#38;#97;&#38;#116;&#38;#46;&#38;#x6F;&#38;#114;&#38;#103;
To unsubscribe send an email to &#38;#107;&#38;#x65;&#38;#x70;&#38;#115;&#38;#45;&#38;#x6C;&#38;#101;&#38;#x61;&#38;#118;&#38;#101;&#38;#x40;&#38;#x61;&#38;#109;&#38;#115;&#38;#x61;&#38;#x74;&#38;#x2E;&#38;#x6F;&#38;#x72;&#38;#x67;
Manage all of your AMSAT-NA mailing list preferences at https://mailman.amsat.org&#60;/p&#62;

			  
                
                
&lt;!-- begin subscription_form_widget.tmpl --&gt; 


	&lt;form 
		action=&quot;https://aus-city.com/cgi-bin/dada/mail.cgi&quot; 
		method=&quot;post&quot; 
		accept-charset=&quot;UTF-8&quot; 
		id=&quot;subscription_form&quot;
		
			target=&quot;_self&quot;
		
	&gt;

	&lt;input type=&quot;hidden&quot; name=&quot;flavor&quot; id=&quot;ddm_flavor&quot; value=&quot;subscribe&quot; &gt;

	    &lt;div class=&quot;row&quot;&gt;
	        &lt;div class=&quot;small-12 columns&quot;&gt;

		 
		    &lt;input 
				type=&quot;hidden&quot; 
				name=&quot;list&quot; 
				id=&quot;ddm_list&quot; 
				value=&quot;RADIOCOMM_LIST&quot; 
			&gt;
		     
				
		    
		


		  
			      &lt;div class=&quot;row&quot;&gt;
			        &lt;div class=&quot;large-4 medium-4 columns&quot;&gt;
						&lt;label 
							class=&quot;medium-text-right&quot;
					  		for=&quot;ddm_email&quot; 
					  	&gt;
							Email Address
						&lt;/label&gt;
			        &lt;/div&gt;
			        &lt;div class=&quot;large-8 medium-8 columns&quot;&gt;
						 
							&lt;input 
								type=&quot;email&quot; 
								name=&quot;email&quot; 
								id=&quot;ddm_email&quot; 
								value=&quot;&quot;
								required=&quot;required&quot; 
								placeholder=&quot;user@example.com (required)&quot;
								&gt;
						 
			        &lt;/div&gt;
			      &lt;/div&gt;

	  
		 
			&lt;div id=&quot;ddm_subscriber_fields&quot;&gt; 
			 
			
			
			
				
			
			
			
			
			
			
			
			
			&lt;/div&gt; 
		
		
		

		
			
		
			
		
				
					
				&lt;input 
					type=&quot;hidden&quot;
					id=&quot;g-recaptcha-response_sf&quot;
					class=&quot;g-recaptcha-response&quot;
					name=&quot;g-recaptcha-response&quot;
				&gt;
				
				
				&lt;div class=&quot;row&quot;&gt;
					&lt;div class=&quot;large-4 medium-4 columns&quot;&gt;
						&amp;nbsp;
					&lt;/div&gt; 
					&lt;div class=&quot;large-8 medium-8 columns&quot;&gt;
						
					&lt;/div&gt;
				&lt;/div&gt;
				 
			
		
		
		&lt;div class=&quot;row&quot;&gt;
			&lt;div class=&quot;large-4 medium-4 columns&quot;&gt;
				&amp;nbsp;
			&lt;/div&gt; 
			&lt;div class=&quot;large-8 medium-8 columns&quot;&gt;
						&lt;input 
							type=&quot;submit&quot; 
							name=&quot;submit_button&quot;
							value=&quot;Subscribe&quot; 
							class=&quot;button success expand&quot; 
							id=&quot;ddm_subscribe_button&quot;
						&gt;
			&lt;/div&gt;
		&lt;/div&gt;
		
		&lt;div class=&quot;row&quot;&gt;
			&lt;div class=&quot;large-12 medium-12 columns large-centered medium-centered&quot;&gt;
				
					&lt;p class=&quot;text-center&quot;&gt; 
						Unsubscribe at Anytime
						| 
						&lt;a 
							href=&quot;https://aus-city.com/cgi-bin/dada/mail.cgi/privacy_policy/RADIOCOMM_LIST/&quot; 
							target=&quot;_blank&quot;
						&gt; 
							Privacy Policy
						&lt;/a&gt;
					&lt;/p&gt;
				
			&lt;/div&gt;
		&lt;/div&gt;
	&lt;/div&gt;
	&lt;/div&gt;
&lt;/form&gt; 

&lt;!-- end subscription_form_widget.tmpl --&gt; 
</description>
		 <pubDate>Fri, 04 Sep 2026 00:45:00 GMT</pubDate>
		 <guid>https://aus-city.com/cgi-bin/dada/mail.cgi/archive/RADIOCOMM_LIST/20260903174550/</guid>
		</item>

	
	 
		<item>
		 <title> [Keps] orb26247.2l.amsat</title>
		 <link>https://aus-city.com/cgi-bin/dada/mail.cgi/archive/RADIOCOMM_LIST/20260903173048/</link>
		 <description>
                
                
			  	&#60;p&#62;SB KEPS @ AMSAT  $ORB26247.1
2Line Orbital Elements 26247.AMSAT&#60;/p&#62;

&#60;p&#62;QST de W1STR&#60;/p&#62;

&#60;p&#62;AMSAT Orbital Elements for Amateur Satellites in TLE Format&#60;/p&#62;

&#60;blockquote&#62;
  &#60;p&#62;From Orbital Analysis Office
  New England Sci-Tech STEM Education Center
  Natick MA September 04, 2026
  To all radio amateurs&#60;/p&#62;
&#60;/blockquote&#62;

&#60;p&#62;These element sets describe the orbits of various satellites 
in use by the amateur radio community. For details see:
www.amsat.org/keplerian-elements-formats/&#60;/p&#62;

&#60;p&#62;A daily update of element sets is available at:
www.amsat.org/tle/daily-bulletin.txt
or without bulletin text:
www.amsat.org/tle/dailytle.txt&#60;/p&#62;

UO-11
1 14781U 84021B   26239.83455848  .00001399  00000-0  14734-3 0  9997
2 14781  97.8135 204.6446 0006436 316.8259  43.2453 14.90951547267804
LO-19
1 20442U 90005G   26239.48507347  .00000096  00000-0  50961-4 0  9996
2 20442  98.8839 263.2495 0011515   2.7532 357.3713 14.34140329912611
AO-27
1 22825U 93061C   26239.60145436  .00000088  00000-0  50339-4 0  9999
2 22825  98.6823 306.9683 0007321 247.6942 112.3465 14.30957843717213
FO-29
1 24278U 96046B   26239.80379450  .00000008  00000-0  47385-4 0  9995
2 24278  98.5185  78.8588 0348799 270.5957  85.5234 13.53277364482855
GO-32
1 25397U 98043D   26239.43096149  .00000053  00000-0  43273-4 0  9999
2 25397  99.0130 234.0063 0001882  46.0189 314.1144 14.24440158461478
ISS
1 25544U 98067A   26239.53072227  .00008959  00000-0  16667-3 0  9990
2 25544  51.6325 306.9725 0007720  89.1136 271.0737 15.49656235582817
NO-44
1 26931U 01043C   26239.47088256  .00000102  00000-0  69148-4 0  9996
2 26931  67.0498  59.8954 0005645 270.5847  89.4608 14.31978587300652
SO-50
1 27607U 02058C   26239.42802767  .00000913  00000-0  12491-3 0  9998
2 27607  64.5509 268.5450 0072963 249.4057 109.9212 14.83180765275024
CO-55
1 27844U 03031E   26239.82959332  .00000254  00000-0  12881-3 0  9999
2 27844  98.6766 247.4968 0009195 344.9709  15.1196 14.24373166201877
RS-22
1 27939U 03042A   26239.86157556  .00001073  00000-0  17302-3 0  9991
2 27939  98.3482  66.2615 0012234  45.9576  66.0808 14.73577836226100
CO-65
1 32785U 08021C   26239.89463830  .00005333  00000-0  33172-3 0  9992
2 32785  97.8345 222.8638 0009840 136.2532 223.9477 15.10031580996010
CO-66
1 32791U 08021J   26238.98160231  .00017066  00000-0  50492-3 0  9997
2 32791  97.7550 240.3966 0004648  77.3931 282.7830 15.34970799998144
RS-30
1 32953U 08025A   26239.88494087  .00000041  00000-0  22093-3 0  9991
2 32953  82.5065 310.8501 0020282 152.5813 207.6342 12.43182187828602
SRMSAT
1 37841U 11058D   26239.47855086  .00000382  00000-0  63200-4 0  9991
2 37841  19.9733 347.9521 0011599 268.8978 167.2895 14.11588830767907
ZACUBE-1
1 39417U 13066B   26239.85243846  .00006382  00000-0  48724-3 0  9999
2 39417  97.8055 202.5352 0041637  13.3033 346.9279 15.01647532691485
Delfi-N3xt
1 39428U 13066N   26239.57124229  .00007772  00000-0  66399-3 0  9995
2 39428  97.8293 159.8376 0072678 330.2604  29.4494 14.95889985685291
GOMX-1
1 39430U 13066Q   26239.81535582  .00001696  00000-0  25944-3 0  9993
2 39430  97.6448  75.7634 0127351 206.7654 152.6945 14.69640163680433
LO-74
1 39440U 13066AA  26239.59346264  .00003144  00000-0  28977-3 0  9995
2 39440  97.8948 188.9149 0057787 149.1840 211.2793 14.94171676687651
AO-73
1 39444U 13066AE  26239.49560446  .00007378  00000-0  44729-3 0  9994
2 39444  97.8339 212.5022 0034422 323.5570  36.3316 15.10377192690428
DTUSAT-2
1 40030U 14033W   26239.48315115  .00007691  00000-0  40590-3 0  9992
2 40030  98.0902 241.7982 0007693   5.5087 354.6227 15.15830355663482
LILACSAT-2
1 40908U 15049K   26239.87665073  .00018150  00000-0  28479-3 0  9992
2 40908  97.4589 279.5353 0006118   8.8261 351.3098 15.53717878606878
Lapan A3
1 41603U 16040E   26239.91263096  .00003526  00000-0  11099-3 0  9992
2 41603  97.1544 233.7427 0011929 113.9090 246.3404 15.33504946565806
CAS-2T
1 41847U 16066G   26239.64162772  .00000556  00000-0  88193-4 0  9999
2 41847  98.3776 314.5593 0340037 272.7477  83.4847 14.44817423515114
TechnoSat
1 42829U 17042E   26239.84902943  .00004029  00000-0  28490-3 0  9991
2 42829  97.4372  34.8354 0016909 205.6062 154.4330 15.05312631497481
AO-91
1 43017U 17073E   26239.36273854  .00009578  00000-0  40584-3 0  9996
2 43017  97.4600 105.1252 0149750  82.7380 279.0846 15.13644175476159
S-Net D
1 43186U 18014G   26239.70154216  .00004996  00000-0  25425-3 0  9993
2 43186  97.5277 144.0433 0009533 123.1279 237.0870 15.17244501469607
S-Net B
1 43187U 18014H   26239.71444037  .00004688  00000-0  23897-3 0  9997
2 43187  97.5282 144.0448 0010217 119.5828 240.6424 15.17213034469602
S-Net A
1 43188U 18014J   26239.70003117  .00005086  00000-0  25864-3 0  9996
2 43188  97.5294 144.2531 0010119 120.1778 240.0459 15.17252874469601
S-Net C
1 43189U 18014K   26239.71874779  .00004750  00000-0  24204-3 0  9992
2 43189  97.5312 144.3572 0011579 114.5686 245.6755 15.17203264468153
Ten-Koh
1 43677U 18084G   26239.48863500  .00002577  00000-0  19537-3 0  9993
2 43677  98.0752  74.8644 0008590 236.1554 123.8853 15.03191190426878
PO-101
1 43678U 18084H   26239.85296919  .00001475  00000-0  12165-3 0  9995
2 43678  98.1196  79.2152 0010531 292.4231  67.5875 15.00682188426967
QO-100
1 43700U 18090A   26239.83137227  .00000144  00000-0  00000+0 0  9995
2 43700   0.0094 125.2005 0002549  61.9982 113.9390  1.00272613 28399
MinXSS-2
1 43758U 18099A   26239.65197235  .00044682  00000-0  74415-3 0  9992
2 43758  97.4484 318.2694 0005807  10.2644 349.8726 15.51875078425192
